This demonstration page uses our WeatherBlox Daily Observations layout. Learn more.

Left ArrowRight Arrow

Hourly Observations for October 27, 2015

Temp ( °F °C ) Dew Point ( °F °C ) Humidity (%) Winds ( mph kmh ) Pressure ( in mb ) Visibility ( mi km ) Precip ( " mm )
12:53 am 00:53 Cloudy 53 11.7 49 9.4 86 86 E 14 22 30.17 1022 10 16 0.00 0.00
1:53 am 01:53 Cloudy 53 11.7 49 9.4 86 86 E 15 24 30.16 1021 10 16 0.00 0.00
2:53 am 02:53 Cloudy 52 11.1 48 8.9 86 86 E 15 24 30.15 1021 10 16 0.00 0.00
3:53 am 03:53 Cloudy with Light Rain 52 11.1 49 9.4 89 89 E 13 20 30.13 1020 10 16 0.00 0.03
4:53 am 04:53 Cloudy with Light Rain 52 11.1 48 8.9 86 86 E 13 20 30.13 1020 9 14 0.02 0.51
5:53 am 05:53 Cloudy 52 11.1 48 8.9 86 86 E 12 19 30.13 1020 10 16 0.02 0.51
6:01 am 06:01 Cloudy 52 11.1 48 8.9 86 86 ENE 14 22 30.18 1022 10 16 0.00 0.00
6:53 am 06:53 Cloudy 51 10.6 48 8.9 89 89 E 13 20 30.14 1021 10 16 0.00 0.03
7:53 am 07:53 Cloudy with Light Rain 51 10.6 48 8.9 89 89 E 15 24 30.12 1020 10 16 0.00 0.03
8:53 am 08:53 Cloudy with Light Rain 52 11.1 48 8.9 86 86 E 14 22 30.13 1020 6 10 0.03 0.76
9:53 am 09:53 Cloudy 52 11.1 49 9.4 89 89 E 13 20 30.13 1020 10 16 0.03 0.76
10:53 am 10:53 Cloudy with Mist and Fog 53 11.7 49 9.4 86 86 E 13 20 30.12 1020 6 10 0.00 0.00
11:51 am 11:51 Cloudy with Light Rain 54 12 50 10 88 88 ENE 9 15 30.15 1021 2 3 0.00 0.03
11:53 am 11:53 Cloudy with Light Rain 53 11.7 51 10.6 93 93 ENE 9 15 30.11 1020 4 6 0.00 0.03
12:53 pm 12:53 Cloudy with Mist and Fog 54 12.2 51 10.6 90 90 E 10 17 30.08 1019 4 6 0.01 0.25
1:53 pm 13:53 Cloudy 56 13.3 51 10.6 84 84 E 10 17 30.04 1017 10 16 0.00 0.00
2:53 pm 14:53 Cloudy 56 13.3 51 10.6 84 84 E 15 24 30.01 1016 10 16 0.00 0.03
3:53 pm 15:53 Cloudy 56 13.3 51 10.6 84 84 E 12 19 29.98 1015 10 16 0.00 0.00
4:53 pm 16:53 Cloudy 56 13.3 51 10.6 84 84 E 16 26 29.98 1015 10 16 0.00 0.00
5:53 pm 17:53 Cloudy with Light Rain 55 12.8 52 11.1 90 90 E 10 17 29.97 1015 7 11 0.01 0.25
6:53 pm 18:53 Cloudy with Mist and Fog 55 12.8 53 11.7 93 93 E 9 15 29.97 1015 4 6 0.00 0.03
7:53 pm 19:53 Cloudy 55 12.8 52 11.1 90 90 E 12 19 29.96 1015 8 13 0.00 0.00
8:53 pm 20:53 Cloudy with Light Rain 56 13.3 53 11.7 90 90 E 14 22 29.96 1015 10 16 0.00 0.03
9:53 pm 21:53 Cloudy with Light Rain 56 13.3 53 11.7 90 90 E 10 17 29.95 1014 9 14 0.04 1.02
10:53 pm 22:53 Cloudy 56 13.3 53 11.7 90 90 E 8 13 29.94 1014 10 16 0.01 0.25
11:53 pm 23:53 Cloudy with Mist and Fog 56 13.3 54 12.2 93 93 E 7 11 29.94 1014 6 10 0.00 0.03

Powered by AerisWeather